Location: Eschertshofen
(49.3064°N, 11.5756°E)
Time: 15:28:39
(UTC+00:00)

Cosmos 1805 - Pass Details

Date: 18 September 2020
Orbit: 524 x 531 km, 82.5° (Epoch: 27 October)

Event Time Altitude Azimuth Distance (km) Brightness Sun altitude
Exits shadow 19:00:58 28° 73° (ENE) 1,012 4.2 -16.9°
Drops below altitude 10° 19:03:49 10° 29° (NNE) 1,792 5.9 -17.3°
Sets 19:06:08 0° 19° (NNE) 2,689 6.9 -17.6°
